Lid_Strength_Index
12 14 15 15 13 12 13 14 14 14 12 12 13 13 11 11 12 12 11 11 10 10 8 8 6 4 4 4 3 2 2 2 2 1 1 1 1 1 0 -0 0 1 1 1
12 15 12 12 11 11 13 14 15 13 12 13 14 13 12 11 11 11 11 11 10 10 9 9 8 7 5 5 4 3 1 1 2 2 1 1 1 0 0 -0 1 1 0 1
14 13 11 10 12 12 13 14 15 14 13 13 16 16 14 11 11 11 10 10 10 10 10 10 9 9 9 8 9 8 4 2 1 1 2 2 0 1 1 1 1 0 0 0
13 11 10 11 12 12 14 12 12 13 15 18 16 20 16 14 13 12 11 11 11 10 10 10 9 8 8 8 7 8 9 9 6 2 2 2 2 3 1 1 0 0 0 0
14 13 12 12 11 11 13 11 12 13 15 16 17 19 17 15 14 12 12 12 11 11 10 9 9 7 7 7 6 7 8 8 9 6 2 3 2 1 1 1 1 1 1 1
11 10 10 11 11 10 10 12 13 14 15 20 18 18 19 15 14 14 12 11 10 10 10 9 8 8 7 7 7 6 8 9 8 6 3 3 4 2 2 2 1 1 1 1
12 12 11 10 12 11 11 14 18 19 20 21 18 19 17 14 13 12 12 11 11 10 10 9 9 9 8 8 7 5 5 7 6 4 3 3 4 2 2 2 2 2 2 2
16 17 13 11 11 13 14 14 18 22 21 20 18 19 15 13 13 11 10 10 10 10 10 9 9 9 9 8 8 7 5 5 5 4 4 4 4 5 3 3 3 3 2 3
16 16 12 11 11 11 13 16 13 17 22 20 19 17 14 13 13 12 11 11 11 10 10 10 10 9 9 9 9 8 8 7 6 5 6 6 5 5 6 5 4 4 4 5
14 16 12 12 11 11 12 11 16 16 23 24 20 19 18 15 14 13 11 11 11 10 10 10 10 10 10 10 9 9 9 9 8 8 8 8 8 7 8 8 7 7 7 7
12 13 14 12 13 14 14 14 14 14 17 20 22 19 15 14 13 13 12 10 10 11 11 10 10 10 10 10 10 10 10 10 10 9 10 10 10 10 10 10 10 9 9 9
12 13 16 15 12 12 12 13 13 16 18 17 17 18 13 13 12 12 11 10 10 10 10 10 10 11 11 11 11 11 11 10 11 11 11 11 11 11 11 11 11 11 11 11
10 14 18 16 14 12 13 13 12 13 16 18 19 18 12 13 12 11 10 10 9 10 10 10 10 11 11 11 11 11 11 11 11 11 12 12 12 12 12 12 12 12 12 12
8 12 14 17 16 14 16 14 13 13 17 17 17 16 14 13 11 11 10 9 9 10 10 10 11 11 12 12 12 12 12 12 12 12 12 12 13 13 13 13 13 13 13 13
10 15 14 13 13 13 14 14 13 13 13 15 14 15 13 12 11 10 10 10 10 10 10 11 11 12 12 13 13 13 13 13 13 12 13 13 13 13 13 14 13 13 13 13
11 17 14 16 13 13 15 14 13 13 13 13 15 15 12 11 11 10 10 10 10 10 10 11 12 13 13 13 13 13 13 13 13 13 14 14 14 14 14 14 14 14 14 14
11 14 16 17 15 16 17 15 14 13 13 13 16 13 12 13 11 10 10 10 10 10 11 11 12 12 13 13 12 13 13 14 14 15 15 15 15 14 14 14 14 14 15 15
14 14 15 17 17 20 15 13 12 13 13 12 13 14 11 11 10 10 9 10 10 10 11 11 11 12 12 13 13 13 14 15 15 15 15 15 15 15 15 15 15 15 15 16
11 14 17 19 25 17 15 15 14 14 14 12 12 12 12 12 11 12 10 9 8 9 9 11 12 12 13 13 13 14 15 14 15 15 15 15 16 17 16 18 16 16 17 17
13 11 13 19 21 22 16 13 11 11 16 12 11 12 12 12 14 13 10 10 10 11 12 12 13 13 13 14 14 14 15 15 15 15 15 15 16 19 19 17 18 17 19 17
14 15 15 15 17 18 14 13 11 16 15 16 13 11 12 12 11 11 11 12 11 12 12 13 13 14 14 14 14 14 15 15 15 16 16 17 17 19 19 19 19 21 21 19
14 15 16 15 17 19 14 14 14 13 14 14 12 12 12 12 13 13 13 13 13 14 13 14 15 15 15 14 14 15 16 16 18 18 19 21 22 20 19 24 24 23 24 23
16 15 16 15 16 14 14 14 13 12 13 14 13 13 12 13 14 14 14 14 14 14 15 15 15 16 16 16 15 16 17 18 21 23 25 25 25 23 23 25 24 22 23 22
15 15 16 16 15 15 13 12 12 12 13 13 13 13 13 13 14 15 15 15 15 15 16 16 16 17 19 19 18 19 20 21 25 26 26 26 26 25 25 22 21 24 24 22
14 14 16 17 15 14 14 13 12 12 13 14 14 14 13 14 15 15 15 15 15 15 16 16 16 18 20 21 22 24 23 25 25 26 24 25 24 27 24 21 22 20 20 19
15 15 15 16 13 13 13 12 12 13 13 14 14 14 14 14 15 16 16 15 16 16 17 18 19 19 21 23 25 29 30 26 25 24 24 25 24 25 22 23 22 16 14 13